IW9CSJ-13 Weather Reports


Display with metric or nautical units.
time (UTC)temp
F
wind
direction
speed
MPH
gust
MPH
rain 1hr
in
rain 24hr
in
rain mn
in
humidity
%
barometer
mb
20260906072517 87 113 1.0 4.0 0.00 0.00 0.00 44 1020.0
20260906072017 87 129 1.0 3.0 0.00 0.00 0.00 45 1019.9
20260906071604 86 145 2.0 6.0 0.00 0.00 0.00 44 1019.9
20260906071020 86 138 2.0 6.0 0.00 0.00 0.00 43 1019.8
20260906071016 86 136 2.0 6.0 0.00 0.00 0.00 43 1019.9
20260906070539 86 138 2.0 6.0 0.00 0.00 0.00 43 1019.8
20260906070021 86 147 2.0 5.0 0.00 0.00 0.00 44 1019.7
20260906065520 86 102 1.0 3.0 0.00 0.00 0.00 45 1019.7
20260906065020 85 64 1.0 2.0 0.00 0.00 0.00 46 1019.5
20260906064541 85 45 1.0 4.0 0.00 0.00 0.00 46 1019.5
20260906064022 85 40 1.0 4.0 0.00 0.00 0.00 46 1019.5
20260906063540 85 61 1.0 2.0 0.00 0.00 0.00 47 1019.4
20260906063021 85 23 0.0 2.0 0.00 0.00 0.00 48 1019.3
20260906063017 85 23 0.0 2.0 0.00 0.00 0.00 48 1019.3
20260906062515 84 0 0.0 1.0 0.00 0.00 0.00 49 1019.2
20260906062026 84 0 0.0 1.0 0.00 0.00 0.00 49 1019.1
20260906061515 84 0 0.0 2.0 0.00 0.00 0.00 50 1019.1
20260906061022 84 0 0.0 3.0 0.00 0.00 0.00 50 1019.0
20260906060518 84 0 1.0 3.0 0.00 0.00 0.00 50 1019.0
20260906060018 83 0 0.0 3.0 0.00 0.00 0.00 50 1018.9
20260906055515 83 0.0 0.0 0.00 0.00 0.00 49 1018.8
20260906055059 82 338 0.0 2.0 0.00 0.00 0.00 49 1018.7
20260906054521 82 338 0.0 1.0 0.00 0.00 0.00 49 1018.6
20260906054023 81 338 0.0 2.0 0.00 0.00 0.00 50 1018.5
20260906053521 80 0.0 0.0 0.00 0.00 0.00 51 1018.4
20260906053021 79 338 1.0 3.0 0.00 0.00 0.00 51 1018.4
20260906052515 78 335 2.0 4.0 0.00 0.00 0.00 51 1018.4
20260906052020 78 315 1.0 4.0 0.00 0.00 0.00 50 1018.3
20260906051522 78 308 2.0 3.0 0.00 0.00 0.00 50 1018.3
20260906051021 78 293 1.0 2.0 0.00 0.00 0.00 52 1018.3
20260906050535 78 289 1.0 2.0 0.00 0.00 0.00 50 1018.3
20260906050025 78 0.0 0.0 0.00 0.00 0.00 47 1018.3
20260906045524 78 282 1.0 2.0 0.00 0.00 0.00 46 1018.3
20260906045020 78 0.0 0.0 0.00 0.00 0.00 46 1018.2
20260906044515 78 0.0 0.0 0.00 0.00 0.00 45 1018.1
20260906044016 78 0.0 0.0 0.00 0.00 0.00 46 1018.0
20260906043518 78 285 1.0 4.0 0.00 0.00 0.00 46 1018.1
20260906043024 78 0.0 0.0 0.00 0.00 0.00 47 1018.1
20260906042521 78 0.0 0.0 0.00 0.00 0.00 47 1018.2
20260906042021 77 293 0.0 2.0 0.00 0.00 0.00 47 1018.1
20260906041523 77 293 0.0 2.0 0.00 0.00 0.00 47 1018.1
20260906041015 78 293 0.0 2.0 0.00 0.00 0.00 49 1017.9
20260906040517 78 0.0 0.0 0.00 0.00 0.00 49 1018.0
20260906040016 78 0.0 0.0 0.00 0.00 0.00 49 1018.2
20260906035525 78 0.0 0.0 0.00 0.00 0.00 50 1018.2
20260906035025 78 293 0.0 3.0 0.00 0.00 0.00 49 1018.1
20260906034540 78 297 2.0 5.0 0.00 0.00 0.00 50 1018.1
20260906034036 78 293 1.0 2.0 0.00 0.00 0.00 50 1018.0
20260906033544 78 293 1.0 3.0 0.00 0.00 0.00 51 1018.0
20260906033020 78 0.0 0.0 0.00 0.00 0.00 50 1018.0
20260906032516 78 296 1.0 4.0 0.00 0.00 0.00 50 1018.0
20260906032024 78 293 1.0 3.0 0.00 0.00 0.00 50 1017.9
20260906031518 78 293 1.0 3.0 0.00 0.00 0.00 51 1018.0
20260906031022 78 0.0 0.0 0.00 0.00 0.00 51 1018.0
20260906030524 78 293 1.0 3.0 0.00 0.00 0.00 51 1017.9
20260906030144 78 293 1.0 3.0 0.00 0.00 0.00 49 1018.0
20260906025520 78 290 1.0 4.0 0.00 0.00 0.00 47 1018.1
20260906025016 78 0.0 0.0 0.00 0.00 0.00 47 1018.1
20260906024521 78 0.0 0.0 0.00 0.00 0.00 46 1018.1
20260906024045 78 0.0 0.0 0.00 0.00 0.00 46 1018.1
20260906023523 78 0.0 0.0 0.00 0.00 0.00 46 1018.2
20260906023040 78 0.0 0.0 0.00 0.00 0.00 45 1018.1
20260906022543 79 293 0.0 2.0 0.00 0.00 0.00 44 1018.2
20260906022017 78 293 0.0 2.0 0.00 0.00 0.00 43 1018.2
20260906021519 78 293 1.0 3.0 0.00 0.00 0.00 44 1018.2
20260906021027 79 293 1.0 2.0 0.00 0.00 0.00 44 1018.2
20260906020520 79 293 0.0 3.0 0.00 0.00 0.00 44 1018.1
20260906020135 79 0.0 0.0 0.00 0.00 0.00 44 1018.2
20260906015539 79 293 0.0 2.0 0.00 0.00 0.00 44 1018.2
20260906015015 78 0.0 0.0 0.00 0.00 0.00 45 1018.1
20260906014542 78 293 0.0 1.0 0.00 0.00 0.00 46 1018.0
20260906014020 78 0.0 0.0 0.00 0.00 0.00 48 1018.2
20260906013605 79 293 0.0 1.0 0.00 0.00 0.00 48 1018.3
20260906012519 79 0.0 0.0 0.00 0.00 0.00 48 1018.3
20260906012016 79 293 1.0 3.0 0.00 0.00 0.00 49 1018.3
20260906011519 79 293 1.0 3.0 0.00 0.00 0.00 49 1018.2
20260906011020 79 299 1.0 3.0 0.00 0.00 0.00 49 1018.3
20260906010522 79 0.0 0.0 0.00 0.00 0.00 49 1018.3
20260906010138 78 293 1.0 3.0 0.00 0.00 0.00 49 1018.3
20260906005539 78 293 1.0 2.0 0.00 0.00 0.00 51 1018.3
20260906005018 78 0.0 0.0 0.00 0.00 0.00 51 1018.2
20260906004522 78 293 1.0 2.0 0.00 0.00 0.00 52 1018.2
20260906004024 78 293 0.0 2.0 0.00 0.00 0.00 53 1018.2
20260906003541 78 0.0 0.0 0.00 0.00 0.00 53 1018.3
20260906003038 78 303 0.0 3.0 0.00 0.00 0.00 52 1018.3
20260906002521 78 325 2.0 3.0 0.00 0.00 0.00 53 1018.3
20260906002026 78 338 0.0 3.0 0.00 0.00 0.00 55 1018.3
20260906001541 78 0 0.0 1.0 0.00 0.00 0.00 56 1018.3
20260906001015 78 0 0.0 2.0 0.00 0.00 0.00 56 1018.4
20260906000604 78 322 3.0 6.0 0.00 0.00 0.00 56 1018.4
20260906000137 78 293 1.0 4.0 0.00 0.00 0.00 56 1018.4
20260905235516 78 303 1.0 3.0 0.00 0.00 0.00 58 1018.5
20260905235016 78 315 0.0 2.0 0.00 0.00 0.00 58 1018.5
20260905234519 78 0 0.0 2.0 0.00 0.00 0.00 59 1018.6
20260905234041 77 301 1.0 4.0 0.00 0.00 0.00 61 1018.5
20260905233521 77 299 1.0 4.0 0.00 0.00 0.00 63 1018.5
20260905233021 77 0.0 0.0 0.00 0.00 0.00 64 1018.5
20260905232523 77 293 0.0 2.0 0.00 0.00 0.00 65 1018.7
20260905232022 77 0.0 0.0 0.00 0.00 0.00 65 1018.7
20260905231525 77 300 1.0 3.0 0.00 0.00 0.00 65 1018.7
20260905231025 78 0.0 0.0 0.00 0.00 0.00 64 1018.7
20260905230515 78 23 0.0 1.0 0.00 0.00 0.00 63 1018.6
20260905230018 78 91 0.0 2.0 0.00 0.00 0.00 63 1018.6
20260905225517 78 170 2.0 5.0 0.00 0.00 0.00 62 1018.6
20260905225020 78 329 1.0 3.0 0.00 0.00 0.00 63 1018.7
20260905224520 78 293 1.0 4.0 0.00 0.00 0.00 63 1018.8
20260905224019 78 324 1.0 5.0 0.00 0.00 0.00 65 1019.0
20260905223515 77 279 1.0 3.0 0.00 0.00 0.00 67 1019.0
20260905223017 77 338 1.0 3.0 0.00 0.00 0.00 69 1019.0
20260905222521 77 0.0 0.0 0.00 0.00 0.00 69 1019.0
20260905222021 77 310 1.0 4.0 0.00 0.00 0.00 70 1018.9
20260905221522 77 302 2.0 4.0 0.00 0.00 0.00 70 1018.9
20260905221021 77 293 1.0 3.0 0.00 0.00 0.00 70 1018.9
20260905220520 77 0.0 0.0 0.00 0.00 0.00 70 1018.8
20260905220022 77 315 1.0 3.0 0.00 0.00 0.00 70 1018.8
20260905215521 77 0.0 0.0 0.00 0.00 0.00 70 1019.0
20260905215021 77 315 0.0 2.0 0.00 0.00 0.00 70 1019.0
20260905214525 77 0.0 0.0 0.00 0.00 0.00 70 1019.0
20260905214024 77 0.0 0.0 0.00 0.00 0.00 71 1019.0
20260905213516 77 0.0 0.0 0.00 0.00 0.00 71 1018.9
20260905213017 77 0.0 0.0 0.00 0.00 0.00 71 1019.0
20260905212519 77 338 0.0 2.0 0.00 0.00 0.00 71 1019.0
20260905212017 77 338 1.0 4.0 0.00 0.00 0.00 71 1018.9
20260905211524 77 323 1.0 4.0 0.00 0.00 0.00 71 1019.1
20260905211057 77 342 1.0 6.0 0.00 0.00 0.00 71 1019.0
20260905210520 77 345 2.0 6.0 0.00 0.00 0.00 70 1019.1
20260905210020 77 0 0.0 2.0 0.00 0.00 0.00 70 1019.1
20260905205520 77 334 1.0 4.0 0.00 0.00 0.00 70 1019.0
20260905205017 77 0.0 0.0 0.00 0.00 0.00 70 1019.0
20260905204522 77 152 0.0 3.0 0.00 0.00 0.00 71 1019.1
20260905204020 77 0.0 0.0 0.00 0.00 0.00 71 1019.1
20260905203524 77 137 1.0 4.0 0.00 0.00 0.00 71 1019.0
20260905203017 77 84 0.0 2.0 0.00 0.00 0.00 70 1019.1
20260905202523 77 134 1.0 3.0 0.00 0.00 0.00 70 1019.0
20260905202022 78 144 1.0 4.0 0.00 0.00 0.00 69 1019.1
20260905201520 78 322 1.0 4.0 0.00 0.00 0.00 69 1019.2
20260905201042 78 316 1.0 4.0 0.00 0.00 0.00 69 1019.1
20260905200541 78 293 0.0 2.0 0.00 0.00 0.00 68 1019.2
20260905200020 78 319 2.0 5.0 0.00 0.00 0.00 68 1019.3
20260905195517 78 0.0 0.0 0.00 0.00 0.00 67 1019.2
20260905195025 78 0.0 0.0 0.00 0.00 0.00 67 1019.2
20260905194540 78 293 1.0 4.0 0.00 0.00 0.00 67 1019.2
20260905194016 78 305 3.0 4.0 0.00 0.00 0.00 66 1019.2
20260905193518 78 285 2.0 4.0 0.00 0.00 0.00 66 1019.1
20260905193022 78 158 0.0 1.0 0.00 0.00 0.00 66 1019.0
20260905192521 78 158 0.0 2.0 0.00 0.00 0.00 66 1019.1
20260905192022 78 331 1.0 3.0 0.00 0.00 0.00 65 1019.0
20260905191520 78 296 4.0 114.0 0.00 0.00 0.00 65 1019.1
20260905191040 78 307 1.0 6.0 0.00 0.00 0.00 64 1019.0
20260905190523 78 338 0.0 2.0 0.00 0.00 0.00 64 1019.0
20260905190023 78 338 1.0 4.0 0.00 0.00 0.00 64 1018.9
20260905185519 78 317 2.0 4.0 0.00 0.00 0.00 64 1018.9
20260905185019 79 346 1.0 3.0 0.00 0.00 0.00 64 1018.8
20260905184525 79 0 0.0 2.0 0.00 0.00 0.00 64 1018.8
20260905184015 79 0 0.0 1.0 0.00 0.00 0.00 63 1018.7
20260905183519 79 0 0.0 1.0 0.00 0.00 0.00 63 1018.9
20260905183024 79 0.0 0.0 0.00 0.00 0.00 63 1018.8
20260905182516 79 0 1.0 6.0 0.00 0.00 0.00 63 1018.7
20260905182019 79 352 3.0 5.0 0.00 0.00 0.00 63 1018.7
20260905181523 79 1 1.0 5.0 0.00 0.00 0.00 63 1018.6
20260905181019 80 23 0.0 3.0 0.00 0.00 0.00 62 1018.7
20260905180516 80 345 2.0 5.0 0.00 0.00 0.00 62 1018.7
20260905180036 80 325 1.0 6.0 0.00 0.00 0.00 62 1018.7
20260905175521 80 48 1.0 5.0 0.00 0.00 0.00 63 1018.6
20260905175050 80 93 1.0 4.0 0.00 0.00 0.00 63 1018.6
20260905174544 80 80 1.0 4.0 0.00 0.00 0.00 62 1018.6
20260905174021 80 125 1.0 5.0 0.00 0.00 0.00 62 1018.7
20260905173518 80 23 0.0 2.0 0.00 0.00 0.00 61 1018.6
20260905173020 81 33 1.0 3.0 0.00 0.00 0.00 59 1018.6
20260905173017 80 124 2.0 6.0 0.00 0.00 0.00 61 1018.6
20260905172517 81 33 1.0 3.0 0.00 0.00 0.00 59 1018.6
20260905172022 81 0 0.0 3.0 0.00 0.00 0.00 58 1018.5
20260905171515 81 340 1.0 5.0 0.00 0.00 0.00 57 1018.6
20260905171024 81 180 1.0 3.0 0.00 0.00 0.00 56 1018.7
20260905171021 82 176 0.0 3.0 0.00 0.00 0.00 56 1018.6
20260905170535 82 176 0.0 3.0 0.00 0.00 0.00 56 1018.6
20260905170521 82 176 0.0 3.0 0.00 0.00 0.00 56 1018.6
20260905170020 82 135 0.0 2.0 0.00 0.00 0.00 55 1018.6
20260905170016 82 135 0.0 2.0 0.00 0.00 0.00 55 1018.6
20260905165521 82 237 1.0 4.0 0.00 0.00 0.00 53 1018.5
20260905165517 82 136 2.0 5.0 0.00 0.00 0.00 54 1018.5
20260905165024 82 237 1.0 4.0 0.00 0.00 0.00 53 1018.5
20260905164537 83 123 0.0 2.0 0.00 0.00 0.00 52 1018.5
20260905164020 83 150 0.0 3.0 0.00 0.00 0.00 51 1018.6
20260905163525 83 167 1.0 4.0 0.00 0.00 0.00 50 1018.6
20260905163520 83 125 1.0 4.0 0.00 0.00 0.00 49 1018.5
20260905163101 83 125 1.0 4.0 0.00 0.00 0.00 49 1018.5
20260905162520 84 319 1.0 4.0 0.00 0.00 0.00 49 1018.4
20260905162518 83 338 0.0 3.0 0.00 0.00 0.00 49 1018.5
20260905162020 84 319 1.0 4.0 0.00 0.00 0.00 49 1018.4
20260905162016 84 319 1.0 4.0 0.00 0.00 0.00 49 1018.4
20260905161517 84 295 2.0 6.0 0.00 0.00 0.00 48 1018.4
20260905161035 84 30 2.0 6.0 0.00 0.00 0.00 49 1018.5
20260905160524 84 210 2.0 6.0 0.00 0.00 0.00 49 1018.7
20260905160521 84 158 1.0 5.0 0.00 0.00 0.00 49 1018.6
20260905160041 84 158 1.0 5.0 0.00 0.00 0.00 49 1018.6
20260905155515 84 354 2.0 5.0 0.00 0.00 0.00 49 1018.6
20260905155019 85 337 3.0 6.0 0.00 0.00 0.00 49 1018.5
20260905154522 85 306 2.0 6.0 0.00 0.00 0.00 48 1018.6
20260905154021 85 69 0.0 2.0 0.00 0.00 0.00 47 1018.5
20260905153521 85 239 1.0 7.0 0.00 0.00 0.00 45 1018.8
20260905153025 85 239 1.0 7.0 0.00 0.00 0.00 45 1018.8
20260905153020 85 299 3.0 7.0 0.00 0.00 0.00 45 1018.7
20260905152520 85 47 2.0 6.0 0.00 0.00 0.00 44 1018.7
20260905152022 86 359 3.0 6.0 0.00 0.00 0.00 43 1018.7
20260905152020 85 47 2.0 6.0 0.00 0.00 0.00 44 1018.7
20260905151527 86 359 3.0 6.0 0.00 0.00 0.00 43 1018.7
20260905151520 86 343 1.0 5.0 0.00 0.00 0.00 43 1018.6
20260905151046 86 343 1.0 5.0 0.00 0.00 0.00 43 1018.6
20260905150538 86 339 2.0 7.0 0.00 0.00 0.00 43 1018.6
20260905150045 86 336 3.0 6.0 0.00 0.00 0.00 43 1018.6
20260905145519 86 2 4.0 8.0 0.00 0.00 0.00 42 1018.6
20260905145019 86 357 4.0 11.0 0.00 0.00 0.00 41 1018.6
20260905144523 86 348 3.0 8.0 0.00 0.00 0.00 41 1018.5
20260905144041 87 352 5.0 17.0 0.00 0.00 0.00 41 1018.5
20260905143516 87 357 3.0 7.0 0.00 0.00 0.00 39 1018.6
20260905143019 87 0 8.0 17.0 0.00 0.00 0.00 39 1018.7
20260905142522 87 342 4.0 11.0 0.00 0.00 0.00 41 1018.7
20260905142025 87 347 4.0 9.0 0.00 0.00 0.00 39 1018.8
20260905142021 87 103 2.0 8.0 0.00 0.00 0.00 39 1018.7
20260905141523 87 103 2.0 8.0 0.00 0.00 0.00 39 1018.7
20260905141021 87 58 2.0 7.0 0.00 0.00 0.00 39 1018.8
20260905140515 87 210 0.0 5.0 0.00 0.00 0.00 39 1018.8
20260905140020 87 318 4.0 7.0 0.00 0.00 0.00 38 1018.8
20260905135516 87 349 4.0 10.0 0.00 0.00 0.00 38 1018.7
20260905135020 88 355 3.0 6.0 0.00 0.00 0.00 38 1018.7
20260905134516 88 274 1.0 4.0 0.00 0.00 0.00 37 1018.7
20260905134018 88 310 3.0 7.0 0.00 0.00 0.00 37 1018.7
20260905133526 88 342 5.0 8.0 0.00 0.00 0.00 36 1018.8
20260905133015 88 328 6.0 10.0 0.00 0.00 0.00 36 1018.9
20260905132524 88 338 6.0 9.0 0.00 0.00 0.00 36 1018.9
20260905132025 88 345 2.0 10.0 0.00 0.00 0.00 37 1019.0
20260905131520 88 317 1.0 6.0 0.00 0.00 0.00 37 1019.0
20260905131026 88 343 2.0 6.0 0.00 0.00 0.00 36 1019.0
20260905130520 88 8 2.0 6.0 0.00 0.00 0.00 37 1019.1
20260905130022 89 276 4.0 9.0 0.00 0.00 0.00 37 1019.1
20260905125523 89 12 2.0 6.0 0.00 0.00 0.00 38 1019.0
20260905125022 89 317 3.0 8.0 0.00 0.00 0.00 37 1019.2
20260905124521 89 347 3.0 8.0 0.00 0.00 0.00 40 1019.1
20260905124036 89 347 3.0 8.0 0.00 0.00 0.00 40 1019.1
20260905123542 89 3 1.0 7.0 0.00 0.00 0.00 40 1019.3
20260905123021 90 326 2.0 5.0 0.00 0.00 0.00 39 1019.2
20260905122517 90 326 2.0 5.0 0.00 0.00 0.00 39 1019.2
20260905122045 90 76 2.0 6.0 0.00 0.00 0.00 41 1019.2
20260905122020 90 68 2.0 4.0 0.00 0.00 0.00 41 1019.3
20260905121518 90 68 2.0 4.0 0.00 0.00 0.00 41 1019.3
20260905121015 90 82 3.0 6.0 0.00 0.00 0.00 41 1019.3
20260905120521 90 18 4.0 11.0 0.00 0.00 0.00 40 1019.4
20260905120122 91 351 4.0 8.0 0.00 0.00 0.00 39 1019.3
20260905115515 91 44 2.0 6.0 0.00 0.00 0.00 37 1019.3
20260905115022 91 101 2.0 7.0 0.00 0.00 0.00 38 1019.4
20260905114600 91 22 3.0 11.0 0.00 0.00 0.00 39 1019.5
20260905114039 91 72 3.0 7.0 0.00 0.00 0.00 38 1019.5
20260905113518 91 14 4.0 7.0 0.00 0.00 0.00 36 1019.5
20260905113015 91 347 2.0 8.0 0.00 0.00 0.00 37 1019.6
20260905112546 91 16 3.0 10.0 0.00 0.00 0.00 39 1019.5
20260905112022 91 127 3.0 5.0 0.00 0.00 0.00 39 1019.5
20260905111517 91 22 3.0 6.0 0.00 0.00 0.00 37 1019.5
20260905111026 91 358 4.0 11.0 0.00 0.00 0.00 37 1019.6
20260905110519 90 350 3.0 8.0 0.00 0.00 0.00 39 1019.6
20260905110028 90 42 2.0 7.0 0.00 0.00 0.00 39 1019.5
20260905105519 91 71 3.0 6.0 0.00 0.00 0.00 41 1019.5
20260905105022 90 36 2.0 6.0 0.00 0.00 0.00 41 1019.5
20260905104539 90 78 4.0 9.0 0.00 0.00 0.00 42 1019.4
20260905104042 89 29 3.0 7.0 0.00 0.00 0.00 44 1019.3
20260905103521 88 109 4.0 7.0 0.00 0.00 0.00 47 1019.4
20260905103024 88 55 4.0 9.0 0.00 0.00 0.00 54 1019.6
20260905102515 88 146 6.0 12.0 0.00 0.00 0.00 52 1019.5
20260905102023 88 125 4.0 9.0 0.00 0.00 0.00 54 1019.5
20260905101535 87 139 4.0 8.0 0.00 0.00 0.00 54 1019.7
20260905101025 87 130 5.0 8.0 0.00 0.00 0.00 55 1019.6
20260905100523 87 146 5.0 7.0 0.00 0.00 0.00 56 1019.6
20260905100059 87 134 6.0 9.0 0.00 0.00 0.00 56 1019.6
20260905095525 87 142 5.0 9.0 0.00 0.00 0.00 57 1019.6
20260905095022 86 151 5.0 10.0 0.00 0.00 0.00 59 1019.8
20260905094517 86 160 7.0 10.0 0.00 0.00 0.00 59 1019.8
20260905094018 86 127 5.0 9.0 0.00 0.00 0.00 59 1019.8
20260905093525 85 142 5.0 9.0 0.00 0.00 0.00 60 1019.8
20260905093023 85 140 5.0 9.0 0.00 0.00 0.00 60 1019.8
20260905092525 85 138 5.0 11.0 0.00 0.00 0.00 60 1019.8
20260905092045 85 132 7.0 12.0 0.00 0.00 0.00 60 1019.8
20260905091519 86 142 5.0 12.0 0.00 0.00 0.00 59 1019.9
20260905091024 86 74 2.0 7.0 0.00 0.00 0.00 58 1019.9
20260905090545 85 121 5.0 13.0 0.00 0.00 0.00 58 1020.0
20260905090017 85 74 3.0 6.0 0.00 0.00 0.00 59 1020.0
20260905085519 85 48 3.0 6.0 0.00 0.00 0.00 60 1020.2
20260905085021 85 26 4.0 8.0 0.00 0.00 0.00 59 1020.2
20260905084515 85 68 4.0 10.0 0.00 0.00 0.00 62 1020.1
20260905084016 85 130 5.0 10.0 0.00 0.00 0.00 61 1020.0
20260905083519 85 36 3.0 6.0 0.00 0.00 0.00 61 1019.9
20260905083016 85 127 5.0 11.0 0.00 0.00 0.00 61 1019.8
20260905082517 85 105 4.0 9.0 0.00 0.00 0.00 61 1019.8
20260905082026 86 132 5.0 8.0 0.00 0.00 0.00 60 1019.9
20260905081545 85 24 3.0 6.0 0.00 0.00 0.00 61 1020.2
20260905081017 84 11 5.0 9.0 0.00 0.00 0.00 63 1019.8
20260905080526 84 133 5.0 12.0 0.00 0.00 0.00 62 1019.8
20260905080020 84 129 4.0 8.0 0.00 0.00 0.00 61 1019.8
20260905075525 84 123 4.0 9.0 0.00 0.00 0.00 61 1019.8
20260905075021 84 130 4.0 8.0 0.00 0.00 0.00 63 1019.7
20260905074520 84 130 4.0 8.0 0.00 0.00 0.00 63 1019.7
20260905074021 84 136 5.0 8.0 0.00 0.00 0.00 61 1019.7
20260905073524 84 132 4.0 6.0 0.00 0.00 0.00 60 1019.6
20260905073044 84 122 3.0 6.0 0.00 0.00 0.00 60 1019.6